User: anonymous   Login
Location: Caltech
(34.1382°N, 118.1253°W)
Time: 07:37:54
(UTC-08:00)
Language:

OAO 2 Rocket - Orbit

View from above orbital plane
View from above orbital plane
View from above satellite
View from above satellite

Ground track
Ground track

The orbit data is extracted from the following two-line orbital elements,

1 03598U 68110B   16337.51390847  .00000074  00000-0  22043-4 0  9994
2 03598  34.9950   7.7669 0049001  72.1835 288.4196 14.54272314537828
Epoch (UTC): 02 December 2016 12:20:01
Eccentricity: 0.0049001
inclination: 34.9950°
perigee height: 677 km
apogee height: 746 km
right ascension of ascending node: 7.7669°
argument of perigee: 72.1835°
revolutions per day: 14.54272314
mean anomaly at epoch: 288.4196°
orbit number at epoch: 53782

The dashed part of the orbit path shows where the satellite is in the earth's shadow,  

DLR